Location: Kellogg
(38.0159°N, 90.0546°W)
Time: 01:45:50
(UTC+00:00)

SR - Pass Details

Date: 18 September 2024
Orbit: 577 x 855 km, 66.7° (Epoch: 10 October)

Event Time Altitude Azimuth Distance (km) Brightness Sun altitude
Rises 19:01:49 0° 239° (WSW) 2,808 ? 50.3°
Reaches altitude 10° 19:04:26 10° 254° (WSW) 1,894 ? 50.0°
Maximum altitude 19:07:49 23° 307° (NW) 1,251 ? 49.7°
Drops below altitude 10° 19:11:12 10° 1° (N) 1,901 ? 49.4°
Sets 19:13:51 0° 16° (NNE) 2,821 ? 49.1°
